,

(GMT )
Simanggang

Weather History for WBGY - February, 2013

Change the Weather History Date:

Tuesday, February 26, 2013

  Actual Average Record
Temperature  
Mean Temperature 85 °F -  
Max Temperature 95 °F - - ()
Min Temperature 75 °F - - ()
Cooling Degree Days 20    
Growing Degree Days 35 (Base 50)    
Moisture  
Dew Point 77 °F    
Average Humidity 84    
Maximum Humidity 100    
Minimum Humidity 59    
Precipitation  
Precipitation 0.00 in - - ()
Sea Level Pressure  
Sea Level Pressure 29.78 in    
Wind  
Wind Speed 2 mph ()    
Max Wind Speed 6 mph    
Max Gust Speed -    
Visibility 6.2 miles    
Events Rain    
T = Trace of Precipitation, MM = Missing Value Source: Averaged Metar Reports

Daily Weather History Graph

Daily Weather History Graph

Search for Another Location

Airport or City:

Trip Planner

Search our weather history database for the weather conditions in past years. The results will help you decide how hot, cold, wet, or windy it might be!

Date:

Astronomy

Feb. 26, 2013 Rise Set
Actual Time 6:44 AM WITA 6:49 PM WITA
Civil Twilight 6:23 AM WITA 7:10 PM WITA
Nautical Twilight 5:59 AM WITA 7:34 PM WITA
Astronomical Twilight 5:35 AM WITA 7:59 PM WITA
Moon 7:08 PM WITA (2/26) 6:44 AM WITA (2/26)
Length of Visible Light 12h 46m
Length of Day
12h 05m
Full, 100% of the Moon is Illuminated
Feb 26
Full
Mar 5
Last Quarter
Mar 12
New
Mar 20
First Quarter
Mar 27
Full

Hourly Weather History & Observations

Time (WITA) Temp. Heat Index Dew Point Humidity Pressure Visibility Wind Dir Wind Speed Gust Speed Precip Events Conditions
12:00 AM 75.2 °F - 75.2 °F 100% 29.83 in 6.2 mi Calm Calm - N/A   Mostly Cloudy
1:00 AM 77.0 °F - 75.2 °F 94% 29.83 in 6.2 mi Calm Calm - N/A   Mostly Cloudy
2:00 AM 75.2 °F - 75.2 °F 100% 29.80 in 6.2 mi SSE 1.2 mph - N/A   Mostly Cloudy
3:00 AM 75.2 °F - 73.4 °F 94% 29.80 in 6.2 mi West 1.2 mph - N/A   Mostly Cloudy
4:00 AM 75.2 °F - 73.4 °F 94% 29.80 in 6.2 mi East 1.2 mph - N/A   Mostly Cloudy
5:00 AM 75.2 °F - 73.4 °F 94% 29.80 in 6.2 mi SE 2.3 mph - N/A   Mostly Cloudy
6:00 AM 75.2 °F - 73.4 °F 94% 29.80 in 6.2 mi Calm Calm - N/A   Mostly Cloudy
7:00 AM 75.2 °F - 73.4 °F 94% 29.80 in 6.2 mi Calm Calm - N/A   Mostly Cloudy
8:00 AM 77.0 °F - 75.2 °F 94% 29.80 in 6.2 mi SSE 2.3 mph - N/A   Mostly Cloudy
9:00 AM 80.6 °F 87.1 °F 77.0 °F 89% 29.83 in 6.2 mi ESE 2.3 mph - N/A   Mostly Cloudy
10:00 AM 84.2 °F 94.1 °F 77.0 °F 79% 29.83 in 6.2 mi ESE 3.5 mph - N/A   Mostly Cloudy
11:00 AM 86.0 °F 99.3 °F 78.8 °F 79% 29.83 in 6.2 mi SSE 5.8 mph - N/A   Mostly Cloudy
12:00 PM 89.6 °F 108.2 °F 80.6 °F 75% 29.80 in 6.2 mi South 4.6 mph - N/A   Mostly Cloudy
1:00 PM 91.4 °F 107.2 °F 78.8 °F 66% 29.77 in 6.2 mi SSE 4.6 mph - N/A   Mostly Cloudy
2:00 PM 93.2 °F 110.2 °F 78.8 °F 63% 29.74 in 6.2 mi SSE 4.6 mph - N/A   Mostly Cloudy
3:00 PM 95.0 °F 112.2 °F 78.8 °F 59% 29.71 in 6.2 mi West 3.5 mph - N/A   Mostly Cloudy
4:00 PM 93.2 °F 110.2 °F 78.8 °F 63% 29.68 in 6.2 mi West 1.2 mph - N/A   Mostly Cloudy
5:00 PM 91.4 °F 111.0 °F 80.6 °F 71% 29.68 in 6.2 mi WNW 3.5 mph - N/A   Mostly Cloudy
6:00 PM 91.4 °F 111.0 °F 80.6 °F 71% 29.68 in 6.2 mi WNW 2.3 mph - N/A   Mostly Cloudy
7:00 PM 84.2 °F 94.1 °F 77.0 °F 79% 29.71 in 6.2 mi West 2.3 mph - N/A   Mostly Cloudy
8:00 PM 80.6 °F 87.1 °F 77.0 °F 89% 29.74 in 6.2 mi North 4.6 mph - N/A Rain Light Rain
9:00 PM 78.8 °F - 77.0 °F 94% 29.77 in 6.2 mi SSE 1.2 mph - N/A   Mostly Cloudy
10:00 PM 78.8 °F - 77.0 °F 94% 29.80 in 6.2 mi SSE 1.2 mph - N/A   Mostly Cloudy
11:00 PM 78.8 °F - 77.0 °F 94% 29.80 in 6.2 mi Calm Calm - N/A   Mostly Cloudy